Flag for Australia Weather past 2 weeks in Bendigo, Victoria, Australia

Now
56 °F

Refreshingly cool.


Feels Like: 56 °F
Forecast: 56 / 79 °F
Wind: No wind

Location: Bendigo Airport Aws

Current Time: Apr 1, 2015 at 3:18:26 AM

Latest Report: Apr 1, 2015 at 1:00 AM


Visibility: N/A

Pressure: 30.16 "Hg

Humidity: 56%

Dew point: 40 °F

Location of BendigoLocation

Historic Weather in Bendigo — Graph

°F

Bendigo temperature yesterday

Maximum temperature yesterday: 82 °F (at 6:00 PM)
Minimum temperature yesterday: 55 °F (at 7:00 AM)
Average temperature yesterday: 67 °F

Past Weeks' High & Low Weather Summary

 TemperatureHumidityPressure
High94 °F (Mar 19, 6:00 PM)98% (Mar 18, 4:00 AM)30.29 "Hg (Mar 18, 4:00 AM)
Low40 °F (Mar 28, 7:00 AM)21% (Mar 31, 6:00 PM)29.56 "Hg (Mar 17, 10:00 PM)
Average62 °F58%30.03 "Hg
* Reported Mar 17 1:00 AM — Apr 1 1:00 AM, Bendigo, Weather by CustomWeather, © 2015

Note: Actual official high and low records may vary slightly from our data, if they occured in-between our weather recording intervals... More about our weather records

Advertising

Bendigo weather history for previous 24 hours

 ConditionsComfort  
Time TempWeatherWind HumidityBarometerVisibility
1:00 AM
Wed, Apr 1
56 °FRefreshingly cool.No wind56%30.16 "HgN/A
12:00 AM56 °FRefreshingly cool.No wind56%30.17 "HgN/A
10:00 PM
Tue, Mar 31
59 °FRefreshingly cool.No wind47%30.17 "HgN/A
9:00 PM60 °FRefreshingly cool.No wind48%30.18 "HgN/A
7:00 PM78 °FPleasantly warm.No wind24%30.16 "HgN/A
6:00 PM82 °FPleasantly warm.6 mph21%30.15 "HgN/A
4:00 PM82 °FPleasantly warm.7 mph25%30.16 "HgN/A
3:00 PM82 °FPleasantly warm.7 mph29%30.18 "HgN/A
1:00 PM78 °FPleasantly warm.9 mph32%30.24 "HgN/A
12:00 PM76 °FMild.3 mph39%30.27 "HgN/A
10:00 AM68 °FMild.5 mph52%30.29 "HgN/A
9:00 AM63 °FMild.7 mph62%30.28 "HgN/A
7:00 AM55 °FCool.10 mph77%30.25 "HgN/A
6:00 AM56 °FCool.10 mph77%30.23 "HgN/A
4:00 AM57 °FCool.10 mph76%30.23 "HgN/A
3:00 AM58 °FCool.10 mph76%30.24 "HgN/A
Weather by CustomWeather, © 2015

See weather overviewHow to use our weather pages